Skip Page Navigation
NASA JPL Caltech
NASA Logo - Jet Propulsion Laboratory + View the NASA Portal
+ Near-Earth Object (NEO) Program
Search JPL
JPL Home Earth Solar System Stars & Galaxies Technology
JPL Solar System Dynamics
BODIES ORBITS EPHEMERIDES TOOLS PHYSICAL DATA DISCOVERY FAQ SITE MAP
JPL Small-Body Database Browser
Search: [ help ]  
24815 (1994 VQ6)
Classification: Inner Main-belt Asteroid          SPK-ID: 2024815
Ephemeris | Orbit Diagram | Orbital Elements | Physical Parameters | Discovery Circumstances ]

[ show orbit diagram ]
Orbital Elements at Epoch 2456800.5 (2014-May-23.0) TDB
Reference: JPL 4 (heliocentric ecliptic J2000)
 Element Value Uncertainty (1-sigma)   Units 
e .101888572670545 8.0222e-08  
a 1.924234132368582 1.0507e-08 AU
q 1.728176663137603 1.5111e-07 AU
i 21.03532665581052 9.6525e-06 deg
node 222.371784296762 1.9408e-05 deg
peri 224.7993636488078 4.5539e-05 deg
M 78.09468161469765 4.0141e-05 deg
tp 2456589.002978449296
(2013-Oct-23.50297845)
0.0001085 JED
period 974.9566319241387
2.67
7.985e-06
2.186e-08
d
yr
n .3692471933746603 3.0242e-09 deg/d
Q 2.120291601599562 1.1577e-08 AU
  Orbit Determination Parameters
   # obs. used (total)      450  
   data-arc span      12889 days (35.29 yr)  
   first obs. used      1978-10-28  
   last obs. used      2014-02-10  
   planetary ephem.      DE431  
   SB-pert. ephem.      SB431-BIG16  
   condition code      0  
   fit RMS      .56698  
   data source      ORB  
   producer      Otto Matic  
   solution date      2014-Feb-19 18:38:09  

Additional Information
 Earth MOID = .770334 AU 
 T_jup = 3.833 
[ show covariance matrix ]

Ephemeris | Orbit Diagram | Orbital Elements | Physical Parameters | Discovery Circumstances ]

Physical Parameter Table
Parameter Symbol Value Units Sigma Reference Notes
absolute magnitude H 15.3 mag n/a MPO279772  
rotation period rot_per 31.17 h n/a Asteroid Lightcurve DataBase (Rev. 2013-Sep-12) Published Reference List:
[Warner, B.D. (2011) Minor Planet Bul. 38, 82-86.]

24815 (1994 VQ6)          Discovered 1994-Nov-07 by Ueda, S., Kaneda, H. at Kushiro (399)
Reference: 20010606/Numbers.arcLast Updated: 2004-04-19

Alternate Designations
 1994 VQ6 = 1978 UD4 = 1999 TQ322 
Ephemeris | Orbit Diagram | Orbital Elements | Physical Parameters | Discovery Circumstances ]
ABOUT SSD CREDITS/AWARDS PRIVACY/COPYRIGHT GLOSSARY LINKS
FirstGov 2014-Apr-16 04:14 UT
(server date/time)  
NASA Home Page
Site Manager:   Donald K. Yeomans
Webmaster  Alan B. Chamberlin